Great Falls, MT

12:53 AM MDT on June 26, 2017 (GMT -0600)
Great Falls International

Weather History for KGTF - October, 2012

Change the Weather History Date:

Tuesday, October 16, 2012

  Actual Average Record
Temperature  
Mean Temperature 50 °F 45 °F  
Max Temperature 61 °F 58 °F 85 °F (1914)
Min Temperature 38 °F 33 °F 14 °F (1930)
Degree Days  
Heating Degree Days 15 20  
Month to date heating degree days 268 275  
Since 1 July heating degree days 445 682  
Cooling Degree Days 0 0  
Month to date cooling degree days 0 0  
Year to date cooling degree days 484 297  
Moisture  
Dew Point 36 °F    
Average Humidity 51    
Maximum Humidity 72    
Minimum Humidity 29    
Precipitation  
Precipitation 0.17 in 0.03 in 0.54 in (2006)
Month to date precipitation 1.07 0.51  
Year to date precipitation 10.86 13.26  
Snow  
Snow 0.00 in 0.20 in 4.00 in (1925)
Month to date snowfall 1.5 1.7  
Since 1 July snowfall 1.5 3.2  
Since 1 September snowfall 1.5 2.9  
Snow Depth 0.00 in    
Sea Level Pressure  
Sea Level Pressure 29.52 in    
Wind  
Wind Speed 22 mph (SW)    
Max Wind Speed 44 mph    
Max Gust Speed 54 mph    
Visibility 9 miles    
Events Rain    
T = Trace of Precipitation, MM = Missing Value Source: NWS Daily Summary

Daily Weather History Graph

Daily Weather History Graph

Search for Another Location

Airport or City:

Trip Planner

Search our weather history database for the weather conditions in past years. The results will help you decide how hot, cold, wet, or windy it might be!

Date:

Astronomy

Oct. 16, 2012 Rise Set
Actual Time 7:46 AM MDT 6:34 PM MDT
Civil Twilight 7:15 AM MDT 7:05 PM MDT
Nautical Twilight 6:39 AM MDT 7:41 PM MDT
Astronomical Twilight 6:04 AM MDT 8:16 PM MDT
Moon 9:22 AM MDT (10/16) 7:11 PM MDT (10/16)
Length of Visible Light 11h 50m
Length of Day
10h 48m
New Moon, 2% of the Moon is Illuminated
Oct 16
New Moon
Oct 21
First Quarter
Oct 29
Full
Nov 6
Last Quarter
Nov 13
New

Hourly Weather History & Observations

Time (MDT) Temp. Windchill Dew Point Humidity Pressure Visibility Wind Dir Wind Speed Gust Speed Precip Events Conditions
12:53 AM 55.9 °F - 37.9 °F 51% 29.63 in 10.0 mi SW 15.0 mph - N/A   Clear
1:53 AM 57.0 °F - 37.0 °F 47% 29.58 in 10.0 mi SSW 16.1 mph - N/A   Partly Cloudy
2:53 AM 54.0 °F - 37.9 °F 55% 29.55 in 10.0 mi SSW 13.8 mph - N/A   Clear
3:53 AM 53.6 °F - 39.2 °F 58% 29.54 in 10.0 mi South 13.8 mph - N/A   Clear
4:53 AM 59.0 °F - 39.9 °F 49% 29.43 in 10.0 mi SW 19.6 mph 28.8 mph N/A   Clear
5:53 AM 60.8 °F - 41.0 °F 48% 29.45 in 10.0 mi SW 24.2 mph 32.2 mph N/A   Clear
6:53 AM 60.1 °F - 42.1 °F 51% 29.39 in 10.0 mi SSW 24.2 mph 29.9 mph N/A   Clear
7:53 AM 57.0 °F - 45.0 °F 64% 29.38 in 10.0 mi SSW 15.0 mph - N/A   Partly Cloudy
8:53 AM 55.9 °F - 46.0 °F 69% 29.41 in 10.0 mi SW 18.4 mph 26.5 mph N/A   Overcast
9:15 AM 48.2 °F - 44.6 °F 87% 29.48 in 1.5 mi NW 19.6 mph 42.6 mph 0.05 in Rain Heavy Rain
9:26 AM 48.2 °F - 44.6 °F 87% 29.47 in 3.0 mi WNW 17.3 mph - 0.12 in Rain Heavy Rain
9:53 AM 48.9 °F - 46.0 °F 90% 29.40 in 10.0 mi South 17.3 mph 27.6 mph 0.16 in Rain Light Rain
10:53 AM 53.1 °F - 46.0 °F 77% 29.36 in 10.0 mi SSW 15.0 mph - N/A   Partly Cloudy
11:53 AM 54.0 °F - 44.1 °F 69% 29.35 in 10.0 mi WSW 17.3 mph 28.8 mph 0.01 in   Partly Cloudy
12:53 PM 57.9 °F - 39.9 °F 51% 29.37 in 10.0 mi WSW 27.6 mph 36.8 mph N/A   Partly Cloudy
1:53 PM 51.1 °F - 35.1 °F 54% 29.39 in 10.0 mi WSW 38.0 mph 54.1 mph N/A   Overcast
2:53 PM 57.9 °F - 28.9 °F 33% 29.41 in 10.0 mi WSW 38.0 mph 43.7 mph N/A   Mostly Cloudy
3:53 PM 53.1 °F - 26.1 °F 35% 29.48 in 10.0 mi West 26.5 mph 39.1 mph N/A   Mostly Cloudy
4:53 PM 53.1 °F - 23.0 °F 31% 29.50 in 10.0 mi West 31.1 mph 47.2 mph N/A   Partly Cloudy
5:53 PM 48.9 °F - 25.0 °F 39% 29.54 in 10.0 mi WSW 31.1 mph 44.9 mph N/A   Clear
6:53 PM 46.0 °F 37.6 °F 27.0 °F 47% 29.60 in 10.0 mi WSW 24.2 mph 35.7 mph N/A   Overcast
7:53 PM 44.1 °F 35.4 °F 28.0 °F 53% 29.67 in 10.0 mi WSW 21.9 mph 29.9 mph N/A   Scattered Clouds
8:53 PM 44.1 °F 35.0 °F 28.0 °F 53% 29.72 in 10.0 mi West 24.2 mph 34.5 mph N/A   Scattered Clouds
9:53 PM 43.0 °F 34.5 °F 28.0 °F 56% 29.77 in 10.0 mi WSW 19.6 mph - N/A   Clear
10:53 PM 39.9 °F 32.1 °F 26.1 °F 58% 29.80 in 10.0 mi WSW 13.8 mph - N/A   Clear
11:53 PM 37.9 °F 29.6 °F 23.0 °F 55% 29.82 in 10.0 mi WSW 13.8 mph - N/A   Clear